Location: Dampvalley
(47.9094°N, 6.1967°E)
Time: 16:00:15
(UTC+00:00)

COSMOS 2487 - Pass Details

Date: 05 March 2021
Orbit: 432 x 436 km, 74.7° (Epoch: 18 April)

Event Time Altitude Azimuth Distance (km) Brightness Sun altitude
Exits shadow 04:50:40 15° 214° (SW) 1,282 4.3 -13.8°
Maximum altitude 04:53:23 60° 293° (WNW) 503 2.3 -13.4°
Drops below altitude 10° 04:56:46 10° 15° (NNE) 1,555 5.4 -12.8°
Sets 04:58:52 0° 19° (NNE) 2,430 6.5 -12.4°
